DW7267 Weather Reports


Display with metric or nautical units.
time (UTC)temp
F
wind
direction
speed
MPH
gust
MPH
rain 1hr
in
rain 24hr
in
rain mn
in
humidity
%
barometer
mb
20260504200716 60 192 4.0 13.0 0.00 0.00 0.00 45 1016.4
20260504200216 60 198 5.0 13.0 0.00 0.00 0.00 44 1016.2
20260504195943 60 339 4.0 13.0 0.00 0.00 0.00 44 1016.4
20260504194713 60 190 4.0 13.0 0.00 0.00 0.00 46 1016.2
20260504194216 60 264 4.0 13.0 0.00 0.00 0.00 44 1016.1
20260504193714 60 171 4.0 13.0 0.00 0.00 0.00 46 1016.1
20260504193214 60 197 3.0 13.0 0.00 0.00 0.00 48 1016.2
20260504192713 60 244 3.0 11.0 0.00 0.00 0.00 48 1016.2
20260504192208 60 223 4.0 11.0 0.00 0.00 0.00 48 1016.1
20260504191708 60 151 4.0 11.0 0.00 0.00 0.00 47 1016.1
20260504191206 60 126 3.0 9.0 0.00 0.00 0.00 50 1016.1
20260504190708 60 219 3.0 8.0 0.00 0.00 0.00 49 1016.0
20260504190208 60 278 4.0 12.0 0.00 0.00 0.00 51 1016.1
20260504185710 60 235 4.0 11.0 0.00 0.00 0.00 52 1016.1
20260504185203 60 151 5.0 14.0 0.00 0.00 0.00 54 1016.0
20260504184704 60 110 4.0 14.0 0.00 0.00 0.00 53 1016.1
20260504184203 60 112 3.0 9.0 0.00 0.00 0.00 55 1016.2
20260504183703 59 119 3.0 11.0 0.00 0.00 0.00 55 1016.2
20260504183202 59 162 4.0 11.0 0.00 0.00 0.00 55 1016.6
20260504182702 59 158 3.0 11.0 0.00 0.00 0.00 55 1016.6
20260504182157 58 247 2.0 9.0 0.00 0.00 0.00 55 1016.6
20260504181657 58 300 2.0 11.0 0.00 0.00 0.00 56 1016.2
20260504181159 58 233 3.0 11.0 0.00 0.00 0.00 56 1016.2
20260504180658 58 126 4.0 11.0 0.00 0.00 0.00 56 1016.2
20260504180156 57 162 4.0 11.0 0.00 0.00 0.00 57 1016.2
20260504175656 57 194 3.0 10.0 0.00 0.00 0.00 58 1016.2
20260504175150 57 205 3.0 8.0 0.00 0.00 0.00 57 1016.4
20260504174651 57 226 2.0 10.0 0.00 0.00 0.00 57 1016.7
20260504174150 57 151 2.0 10.0 0.00 0.00 0.00 56 1017.0
20260504173151 57 251 2.0 11.0 0.00 0.00 0.00 55 1016.7
20260504172923 57 227 2.0 7.0 0.00 0.00 0.00 56 1017.2
20260504172144 57 244 2.0 12.0 0.00 0.00 0.00 57 1016.8
20260504171645 56 129 3.0 12.0 0.00 0.00 0.00 57 1016.7
20260504171144 56 145 4.0 13.0 0.00 0.00 0.00 59 1016.5
20260504170645 56 161 4.0 13.0 0.00 0.00 0.00 59 1016.1
20260504170144 56 90 3.0 12.0 0.00 0.00 0.00 59 1016.5
20260504160132 56 162 5.0 12.0 0.00 0.00 0.00 62 1016.4
20260504151125 55 135 3.0 10.0 0.00 0.00 0.00 64 1016.2
20260504150626 55 118 3.0 8.0 0.00 0.00 0.00 65 1016.4
20260504150127 55 220 3.0 8.0 0.00 0.00 0.00 64 1016.0
20260504141115 53 100 3.0 6.0 0.00 0.00 0.00 66 1015.6
20260504140616 53 114 3.0 7.0 0.00 0.00 0.00 67 1015.8
20260504140114 53 106 3.0 8.0 0.00 0.00 0.00 67 1016.0
20260504130548 48 120 0.0 2.0 0.00 0.00 0.00 71 1015.9
20260504100506 52 258 0.0 1.0 0.00 0.00 0.00 56 1015.9
20260504081936 55 183 0.0 5.0 0.00 0.00 0.00 50 1015.4
20260504081705 55 252 1.0 6.0 0.00 0.00 0.00 50 1015.6
20260504080935 55 266 1.0 6.0 0.00 0.00 0.00 50 1015.8
20260504080431 56 273 2.0 7.0 0.00 0.00 0.00 49 1015.8
20260504050353 61 259 2.0 8.0 0.00 0.00 0.00 34 1015.9
20260504045853 61 212 1.0 8.0 0.00 0.00 0.00 33 1015.9
20260504045355 61 265 2.0 9.0 0.00 0.00 0.00 33 1016.1
20260504044853 62 242 4.0 11.0 0.00 0.00 0.00 33 1016.1
20260504044350 61 264 3.0 11.0 0.00 0.00 0.00 33 1016.0
20260504043346 62 178 3.0 10.0 0.00 0.00 0.00 32 1015.9
20260504042845 62 250 2.0 10.0 0.00 0.00 0.00 32 1016.0
20260504042346 62 238 3.0 12.0 0.00 0.00 0.00 32 1016.1
20260504041847 62 241 3.0 12.0 0.00 0.00 0.00 32 1015.8
20260504041345 62 235 3.0 12.0 0.00 0.00 0.00 31 1015.9
20260504041116 62 267 3.0 12.0 0.00 0.00 0.00 31 1015.8
20260504040339 62 251 2.0 7.0 0.00 0.00 0.00 31 1015.6
20260504035841 62 272 1.0 5.0 0.00 0.00 0.00 31 1015.5
20260504035340 62 145 1.0 5.0 0.00 0.00 0.00 31 1015.4
20260504035111 62 223 1.0 6.0 0.00 0.00 0.00 31 1015.4
20260504034339 62 250 1.0 6.0 0.00 0.00 0.00 31 1015.4
20260504033838 63 227 1.0 6.0 0.00 0.00 0.00 30 1015.3
20260504033333 63 214 1.0 6.0 0.00 0.00 0.00 30 1015.2
20260504032833 63 255 1.0 5.0 0.00 0.00 0.00 30 1015.1
20260504032335 63 247 1.0 6.0 0.00 0.00 0.00 30 1014.9
20260504031834 63 165 2.0 7.0 0.00 0.00 0.00 30 1015.1
20260504031332 63 254 1.0 7.0 0.00 0.00 0.00 30 1014.9
20260504030834 63 269 0.0 6.0 0.00 0.00 0.00 30 1014.9
20260504030326 64 228 0.0 6.0 0.00 0.00 0.00 29 1014.8
20260504025323 64 244 2.0 7.0 0.00 0.00 0.00 29 1014.6
20260504024821 64 252 2.0 7.0 0.00 0.00 0.00 29 1014.5
20260504024322 64 286 1.0 6.0 0.00 0.00 0.00 30 1014.5
20260504023317 64 218 0.0 4.0 0.00 0.00 0.00 30 1014.1
20260504022817 64 234 0.0 5.0 0.00 0.00 0.00 30 1014.0
20260504022317 65 265 0.0 5.0 0.00 0.00 0.00 30 1014.0
20260504021814 65 247 1.0 6.0 0.00 0.00 0.00 30 1014.0
20260504021314 65 247 1.0 6.0 0.00 0.00 0.00 29 1013.9
20260504020813 65 245 0.0 5.0 0.00 0.00 0.00 30 1013.9
20260504020310 66 238 0.0 5.0 0.00 0.00 0.00 29 1013.9
20260504015811 67 237 1.0 11.0 0.00 0.00 0.00 28 1013.7
20260504015311 67 238 2.0 11.0 0.00 0.00 0.00 28 1013.9
20260504014809 67 272 3.0 12.0 0.00 0.00 0.00 27 1014.0
20260504014308 67 245 2.0 12.0 0.00 0.00 0.00 27 1014.1
20260504013806 67 263 1.0 14.0 0.00 0.00 0.00 27 1014.1
20260504013303 68 210 1.0 14.0 0.00 0.00 0.00 27 1014.1
20260504012304 68 226 3.0 14.0 0.00 0.00 0.00 26 1014.3
20260504012035 69 238 4.0 14.0 0.00 0.00 0.00 25 1014.3
20260504011304 69 221 5.0 14.0 0.00 0.00 0.00 25 1014.5
20260504010758 70 250 4.0 14.0 0.00 0.00 0.00 24 1014.5
20260504010530 70 234 4.0 13.0 0.00 0.00 0.00 25 1014.5
20260504005759 70 242 3.0 13.0 0.00 0.00 0.00 25 1014.5
20260504005258 70 234 4.0 14.0 0.00 0.00 0.00 25 1014.6
20260504005029 70 90 4.0 14.0 0.00 0.00 0.00 25 1014.5
20260504004256 71 271 5.0 14.0 0.00 0.00 0.00 24 1014.7
20260504003754 71 140 4.0 14.0 0.00 0.00 0.00 24 1014.7
20260504003524 71 147 4.0 13.0 0.00 0.00 0.00 24 1014.6
20260504002753 71 224 5.0 16.0 0.00 0.00 0.00 24 1014.3
20260504002252 71 120 5.0 16.0 0.00 0.00 0.00 24 1014.5
20260504001751 71 175 5.0 16.0 0.00 0.00 0.00 24 1014.7
20260504001250 71 247 5.0 16.0 0.00 0.00 0.00 24 1014.5
20260504000743 72 217 4.0 16.0 0.00 0.00 0.00 23 1014.5
20260504000244 72 171 5.0 17.0 0.00 0.00 0.00 24 1014.7
20260503235743 72 77 6.0 17.0 0.00 0.00 0.00 23 1014.6
20260503235244 72 119 5.0 16.0 0.00 0.00 0.00 23 1014.6
20260503234744 72 95 4.0 12.0 0.00 0.00 0.00 26 1014.6
20260503234245 73 148 4.0 15.0 0.00 0.00 0.00 26 1014.5
20260503233740 73 153 4.0 15.0 0.00 0.00 0.00 26 1014.6
20260503233241 73 171 4.0 11.0 0.00 0.00 0.00 26 1014.7
20260503233013 73 228 4.0 15.0 0.00 0.00 0.00 26 1014.5
20260503232240 73 268 4.0 15.0 0.00 0.00 0.00 26 1014.7
20260503231739 73 231 5.0 16.0 0.00 0.00 0.00 26 1014.7
20260503231238 73 217 6.0 16.0 0.00 0.00 0.00 26 1014.8
20260503230735 73 226 5.0 14.0 0.00 0.00 0.00 26 1014.8
20260503230235 73 183 5.0 14.0 0.00 0.00 0.00 26 1015.1
20260503225735 73 271 5.0 14.0 0.00 0.00 0.00 25 1015.1
20260503225235 73 154 4.0 11.0 0.00 0.00 0.00 27 1014.9
20260503224735 73 217 4.0 15.0 0.00 0.00 0.00 26 1015.2
20260503224236 73 234 4.0 15.0 0.00 0.00 0.00 26 1015.1
20260503223736 73 238 4.0 16.0 0.00 0.00 0.00 28 1015.2
20260503223229 73 205 4.0 16.0 0.00 0.00 0.00 26 1015.2
20260503223001 73 264 3.0 17.0 0.00 0.00 0.00 27 1015.4
20260503222230 72 258 5.0 17.0 0.00 0.00 0.00 26 1015.5
20260503221731 71 88 5.0 17.0 0.00 0.00 0.00 23 1015.8
20260503221231 71 143 4.0 17.0 0.00 0.00 0.00 24 1016.0
20260503220731 72 155 5.0 14.0 0.00 0.00 0.00 24 1015.9
20260503220224 73 217 6.0 16.0 0.00 0.00 0.00 24 1016.1
20260503215726 74 233 4.0 16.0 0.00 0.00 0.00 22 1016.1
20260503215224 74 237 3.0 12.0 0.00 0.00 0.00 26 1016.0
20260503214725 74 251 3.0 12.0 0.00 0.00 0.00 27 1016.1
20260503214225 74 144 3.0 13.0 0.00 0.00 0.00 27 1015.9
20260503213724 73 179 4.0 13.0 0.00 0.00 0.00 27 1016.1
20260503213219 73 250 4.0 12.0 0.00 0.00 0.00 26 1016.2
20260503212719 73 239 4.0 13.0 0.00 0.00 0.00 27 1016.4
20260503212219 72 233 5.0 13.0 0.00 0.00 0.00 25 1016.5
20260503211718 72 235 4.0 14.0 0.00 0.00 0.00 26 1016.5
20260503211219 71 258 3.0 14.0 0.00 0.00 0.00 27 1016.6
20260503210212 72 242 4.0 12.0 0.00 0.00 0.00 28 1017.0
20260503205943 72 223 3.0 12.0 0.00 0.00 0.00 29 1016.8
20260503205214 72 115 3.0 11.0 0.00 0.00 0.00 33 1016.7
20260503204713 71 197 4.0 13.0 0.00 0.00 0.00 32 1017.0
20260503204212 70 175 4.0 13.0 0.00 0.00 0.00 35 1017.1
20260503203713 70 183 3.0 11.0 0.00 0.00 0.00 33 1017.1
20260503203206 70 76 3.0 9.0 0.00 0.00 0.00 34 1017.2
20260503202707 69 162 2.0 9.0 0.00 0.00 0.00 36 1017.3
20260503202206 69 251 3.0 10.0 0.00 0.00 0.00 36 1017.4
20260503201706 69 237 4.0 12.0 0.00 0.00 0.00 34 1017.4
20260503201438 70 115 5.0 12.0 0.00 0.00 0.00 33 1017.5